Weather History for Jacksonville Craig, FL

Change the Weather History Date:

Friday, September 27, 2013

  Actual Average Record
Temperature  
Mean Temperature 74 °F -  
Max Temperature 80 °F 81 °F 91 °F (2002)
Min Temperature 69 °F 68 °F 62 °F (2008)
Cooling Degree Days 9    
Growing Degree Days 24 (Base 50)    
Moisture  
Dew Point 68 °F    
Average Humidity 78    
Maximum Humidity 90    
Minimum Humidity 68    
Precipitation  
Precipitation 0.04 in - - ()
Sea Level Pressure  
Sea Level Pressure 29.97 in    
Wind  
Wind Speed 10 mph (NNE)    
Max Wind Speed 16 mph    
Max Gust Speed 28 mph    
Visibility 10 miles    
Events Rain    
Averages and records for this station are not official NWS values.
T = Trace of Precipitation, MM = Missing Value Source: NWS Daily Summary

Daily Weather History Graph

Daily Weather History Graph

Search for Another Location

Airport:

Trip Planner

Search our weather history database for the weather conditions in past years. The results will help you decide how hot, cold, wet, or windy it might be!

Date:

Astronomy

Sep. 27, 2013 Rise Set
Actual Time 7:17 AM EDT 7:16 PM EDT
Civil Twilight 6:53 AM EDT 7:39 PM EDT
Nautical Twilight 6:25 AM EDT 8:07 PM EDT
Astronomical Twilight 5:57 AM EDT 8:35 PM EDT
Moon 12:34 AM EDT (9/27) 2:31 PM EDT (9/27)
Length of Visible Light 12h 46m
Length of Day
11h 58m
Last Quarter, 45% of the Moon is Illuminated
Sep 27
Last Quarter
Oct 4
New
Oct 11
First Quarter
Oct 18
Full
Oct 26
Last Quarter

Hourly Weather History & Observations

Time (EDT) Temp. Dew Point Humidity Pressure Visibility Wind Dir Wind Speed Gust Speed Precip Events Conditions
12:53 AM 71.1 °F 66.9 °F 87% 29.91 in 10.0 mi North 8.1 mph - N/A   Partly Cloudy
1:39 AM 71.6 °F 66.2 °F 83% 29.91 in 10.0 mi North 8.1 mph - N/A   Scattered Clouds
1:53 AM 71.1 °F 66.0 °F 84% 29.91 in 10.0 mi North 8.1 mph - N/A   Mostly Cloudy
2:53 AM 71.1 °F 66.9 °F 87% 29.91 in 10.0 mi North 6.9 mph - N/A   Overcast
3:53 AM 70.0 °F 66.9 °F 90% 29.90 in 10.0 mi North 5.8 mph - N/A   Clear
4:53 AM 70.0 °F 66.0 °F 87% 29.90 in 9.0 mi NNW 8.1 mph - N/A   Scattered Clouds
5:53 AM 70.0 °F 66.0 °F 87% 29.91 in 9.0 mi North 6.9 mph - N/A   Clear
6:53 AM 69.1 °F 64.9 °F 87% 29.93 in 9.0 mi NNW 8.1 mph - N/A   Clear
7:53 AM 69.1 °F 64.9 °F 87% 29.95 in 8.0 mi NNW 8.1 mph - N/A   Clear
8:53 AM 72.0 °F 64.9 °F 78% 29.97 in 9.0 mi NNW 9.2 mph - N/A   Clear
9:53 AM 73.9 °F 66.0 °F 76% 29.98 in 10.0 mi NNW 8.1 mph - N/A   Clear
10:53 AM 79.0 °F 69.1 °F 72% 29.99 in 10.0 mi NNE 10.4 mph - N/A   Mostly Cloudy
11:53 AM 77.0 °F 69.1 °F 76% 29.99 in 10.0 mi NNE 10.4 mph 21.9 mph N/A   Overcast
12:00 PM 77.0 °F 69.8 °F 78% 29.99 in 10.0 mi North 11.5 mph - N/A   Overcast
12:11 PM 77.0 °F 69.8 °F 78% 29.99 in 10.0 mi North 10.4 mph - N/A   Overcast
12:53 PM 77.0 °F 69.1 °F 76% 29.99 in 10.0 mi NNE 12.7 mph 18.4 mph 0.00 in Rain Light Rain
1:31 PM 77.0 °F 69.8 °F 78% 29.98 in 10.0 mi NNE 12.7 mph 20.7 mph 0.00 in   Overcast
1:53 PM 78.1 °F 69.1 °F 74% 29.98 in 10.0 mi NNE 13.8 mph 21.9 mph 0.00 in Rain Light Rain
2:16 PM 75.2 °F 69.8 °F 83% 29.97 in 9.0 mi NNE 11.5 mph - 0.04 in Rain Light Rain
2:53 PM 78.1 °F 69.1 °F 74% 29.96 in 10.0 mi NNE 15.0 mph 21.9 mph 0.04 in   Mostly Cloudy
3:53 PM 78.1 °F 66.9 °F 68% 29.97 in 10.0 mi NNE 16.1 mph 23.0 mph N/A   Overcast
4:53 PM 79.0 °F 68.0 °F 69% 29.97 in 10.0 mi NNE 11.5 mph 25.3 mph N/A   Mostly Cloudy
5:23 PM 77.0 °F 66.2 °F 69% 29.97 in 10.0 mi NNE 13.8 mph 21.9 mph N/A   Mostly Cloudy
5:53 PM 78.1 °F 66.9 °F 68% 29.98 in 10.0 mi NNE 15.0 mph 20.7 mph N/A   Mostly Cloudy
6:53 PM 77.0 °F 66.9 °F 71% 29.99 in 10.0 mi NNE 11.5 mph 21.9 mph N/A   Mostly Cloudy
7:53 PM 75.9 °F 66.0 °F 71% 30.00 in 10.0 mi NE 10.4 mph - N/A   Mostly Cloudy
8:53 PM 77.0 °F 66.9 °F 71% 30.01 in 10.0 mi NE 10.4 mph - N/A   Overcast
9:53 PM 77.0 °F 68.0 °F 74% 30.01 in 10.0 mi NE 12.7 mph - 0.00 in   Mostly Cloudy
10:53 PM 78.1 °F 68.0 °F 71% 30.02 in 10.0 mi ENE 11.5 mph 18.4 mph 0.00 in Rain Light Rain
11:04 PM 77.0 °F 69.8 °F 78% 30.02 in 10.0 mi ENE 12.7 mph 27.6 mph 0.00 in   Overcast
11:53 PM 75.9 °F 69.1 °F 79% 30.01 in 10.0 mi NE 12.7 mph 18.4 mph 0.00 in   Mostly Cloudy